Regional Weather Roundup
Issued by NWS

Home | Current Version | Previous Version | Graphics & Text | Print | Product List | Glossary On
Versions: 1 2 3 4 5 6 7 8 9 10 11 12 13 14 15 16 17 18 19 20 21 22 23 24 25 26 27 28 29 30 31 32 33 34 35 36 37 38 39 40 41 42 43 44 45 46 47 48 49 50
000
ASUS43 KMPX 030310
RWRMN
WEATHER ROUNDUP FOR MINNESOTA
NATIONAL WEATHER SERVICE TWIN CITIES/CHANHASSEN MN
1000 PM CDT THU JUL 02 2015


NOTE: "FAIR" INDICATES FEW OR NO CLOUDS BELOW 12,000 FEET WITH NO
SIGNIFICANT WEATHER AND/OR OBSTRUCTIONS TO VISIBILITY. N/A MEANS
CURRENT SKY AND/OR WEATHER CONDITIONS ARE NOT AVAILABLE.

MNZ060>063-068>070-030400-
   Twin Cities Metro

CITY           SKY/WX    TMP DP  RH WIND       PRES   REMARKS
TWIN CITIES    PTCLDY    73  53  49 S6        29.98R
ST PAUL        CLEAR     68  58  70 SE5       29.98R
CRYSTAL        CLEAR     68  54  60 CALM      29.97R
BLAINE         CLEAR     70  55  60 CALM      29.98R
LAKEVILLE      PTCLDY    61  57  88 CALM      29.99R
EDEN PRAIRIE   CLEAR     68  55  63 SE3       29.97S
SOUTH ST PAUL  CLEAR     69  55  60 CALM      29.98R
LAKE ELMO      FAIR      64  57  77 CALM      29.99S
$$
MNZ001>005-007-008-013>017-022>024-027-028-030400-
   Northwest Minnesota

CITY           SKY/WX    TMP DP  RH WIND       PRES   REMARKS
BEMIDJI        PTCLDY    64  56  75 S5        29.95S
HALLOCK        PTCLDY    66  64  94 S3        29.87R
ROSEAU         PTCLDY    68  61  77 SW7       29.88R
WARROAD        PTCLDY    70  63  78 SW7       29.88S
THIEF RVR FALL MOCLDY    70  55  60 S8        29.91S
CROOKSTON      PTCLDY    70  61  73 S8        29.91R
FOSSTON        PTCLDY    64  55  72 S8        29.94S
DETROIT LAKES  MOCLDY    64  55  72 S5        29.98R
MOORHEAD       MOCLDY    68  55  64 S6        29.95R
PARK RAPIDS    PTCLDY    63  54  72 W3        29.98R
MAHNOMEN       FAIR      65  56  73 S6        29.95R
$$
MNZ006-009>011-018-025>026-030400-
   North Central Minnesota

CITY           SKY/WX    TMP DP  RH WIND       PRES   REMARKS
BAUDETTE       CLOUDY    69  56  62 SW8       29.88S
FLAG ISLAND    PTCLDY    72  63  73 SW9       29.85R
INTL FALLS     MOCLDY    68  57  68 SW7       29.89S
WASKISH        MOCLDY    68  57  68 S5        29.91S
BIG FORK       PTCLDY    64  61  88 SW3       29.94S
LONGVILLE      CLEAR     66  57  72 SW3       29.97R
GRAND RAPIDS   PTCLDY    66  55  68 S5        29.95S
CRANE LAKE     PTCLDY    66  57  72 S1        29.92S
ORR            PTCLDY    66  55  68 CALM      29.90S
COOK           PTCLDY    66  59  77 S5        29.93F
WALKER         FAIR      64  55  74 W3        29.96R
$$
MNZ012-019>021-037-030400-
   Northeast Minnesota

CITY           SKY/WX    TMP DP  RH WIND       PRES   REMARKS
DULUTH         CLEAR     65  56  72 W5        29.97R
ELY            CLOUDY    66  57  72 CALM      29.93S
HIBBING        MOCLDY    63  58  83 CALM      29.95R
DULUTH HARBOR  CLEAR     70  61  73 S6        29.95R
TWO HARBORS    CLEAR     66  61  82 W5        29.93R
SILVER BAY     CLEAR     64  57  77 CALM      29.92S
GRAND MARAIS     N/A     57  53  86 CALM      29.89S
G MARAIS ARPRT PTCLDY    61  55  82 CALM      29.94S
$$
MNZ029>031-032-039>041-046>048-054>057-064-030400-
   West Central Minnesota

CITY           SKY/WX    TMP DP  RH WIND       PRES   REMARKS
FERGUS FALLS   PTCLDY    64  55  72 S5        29.96R
WHEATON        CLEAR     63  54  72 S6        29.98R
MORRIS         CLEAR     63  55  77 S5        29.96S
ALEXANDRIA     PTCLDY    63  51  65 S5        30.00R
ELBOW LAKE     FAIR      61  56  82 S7        29.97R
WADENA         PTCLDY    61  54  77 CALM      29.98R
GLENWOOD       CLEAR     63  55  77 S5        29.99R
APPLETON       CLEAR     64  54  68 CALM      29.97R
BENSON         CLEAR     63  54  72 CALM      29.98R
ORTONVILLE     CLEAR     63  54  72 CALM      29.97R
MADISON        CLEAR     63  54  72 S3        29.97S
WILLMAR        FAIR      66  55  68 CALM      30.00R
$$
MNZ033>034-036-042>043-049>051-058-059-030400-
   Central Minnesota

CITY           SKY/WX    TMP DP  RH WIND       PRES   REMARKS
ST CLOUD       CLEAR     61  56  83 CALM      29.98R
SAUK CENTRE    FAIR      60  56  86 CALM      29.99R
PAYNESVILLE    CLEAR     57  55  91 CALM      29.99R
AITKIN         CLEAR     63  55  77 CALM      29.96R
PINE RIVER     CLEAR     64  55  72 CALM      30.01R
BRAINERD       CLEAR     62  56  80 CALM      29.97S
STAPLES        CLEAR     61  54  77 CALM      29.98R
LONG PRAIRIE   FAIR      59  55  88 CALM      29.99R
LITTLE FALLS   CLEAR     59  54  82 CALM      29.98R
LITCHFIELD     CLEAR     63  54  72 CALM      29.99R
BUFFALO        CLEAR     64  56  75 CALM      29.99R
MAPLE LAKE     CLEAR     63  58  83 CALM      29.99R
$$
MNZ037-044-045-052-053-030400-
   East Central Minnesota

CITY           SKY/WX    TMP DP  RH WIND       PRES   REMARKS
PRINCETON      CLEAR     63  57  82 CALM      29.98R
MORA           CLEAR     59  55  88 CALM      29.99R
CAMBRIDGE      CLEAR     70  55  60 CALM      29.96R
RUSH CITY      PTCLDY    60  57  90 CALM      29.98R
MOOSE LAKE     CLEAR     59  57  94 CALM      29.96R
HINCKLEY       FAIR      59  59 100 CALM      29.97R
CLOQUET        CLEAR     64  54  68 SW3       29.97R
MCGREGOR       PTCLDY    66  55  68 SW3       29.97R
$$
MNZ071>073-080-081-089-090-097-098-030400-
   Southwest Minnesota

CITY           SKY/WX    TMP DP  RH WIND       PRES   REMARKS
MONTEVIDEO     CLEAR     63  52  67 CALM      29.98S
GRANITE FALLS  CLEAR     60  55  84 CALM      30.00R
CANBY          CLEAR     61  56  85 CALM      29.99R
MARSHALL       CLEAR     63  52  67 S6        29.98R
REDWOOD FALLS  CLEAR     65  55  70 SE3       29.98R
OLIVIA         CLEAR     61  50  67 CALM      29.98S
PIPESTONE      CLEAR     63  54  72 S5        30.01R
WINDOM         PTCLDY    63  54  72 CALM      30.01R
WORTHINGTON    PTCLDY    63  52  67 S5        30.01R
JACKSON        PTCLDY    63  55  77 S3        30.01S
TRACY          CLEAR     62  54  74 SW6       30.00R
SLAYTON        CLEAR     62  51  69 CALM      30.01S
$$
MNZ065>067-074>077-082>085-091>093-030400-
   South Central Minnesota

CITY           SKY/WX    TMP DP  RH WIND       PRES   REMARKS
MANKATO        PTCLDY    66  54  63 SE3       29.99R
NEW ULM        PTCLDY    63  54  72 CALM      29.99R
ST JAMES       PTCLDY    63  55  77 S5        30.01R
FAIRMONT       MOCLDY    64  48  55 SW5       30.00R
GLENCOE        CLEAR     63  58  82 CALM      29.98R
FARIBAULT      PTCLDY    61  57  88 CALM      30.00R
OWATONNA       MOCLDY    64  57  77 CALM      30.00R
WASECA         MOCLDY    63  55  77 SE3       30.01R
ALBERT LEA     MOCLDY    63  57  82 CALM      30.00R
$$
MNZ078>079-086>088-094>096-030400-
   Southeast Minnesota

CITY           SKY/WX    TMP DP  RH WIND       PRES   REMARKS
ROCHESTER      PTCLDY    64  54  69 SE5       30.01R
RED WING       PTCLDY    61  57  88 CALM      29.98S
STANTON        PTCLDY    63  59  88 CALM      29.98S
DODGE CENTER   MOCLDY    64  57  77 CALM      30.01R
WINONA         CLEAR     63  59  88 CALM      30.00R
AUSTIN         MOCLDY    64  59  82 CALM      30.00S
PRESTON        MOCLDY    62  54  76 CALM      30.02R
$$
ABBREVIATIONS USED IN REMARKS
   TC - TEMPERATURES IN CELSIUS
  WCI - WIND CHILL INDEX
   HX - HEAT INDEX
  VSB - VISIBILITY
$$


USA.gov is the U.S. government's official web portal to all federal, state and local government web resources and services.